Date String (YYYY-MM-DD hh:mm:ss) UTC,Instrument flags,absolute air pressure of the measurement (hPa),sample flow rate (lpm),inlet stack bypass flow (lpm),air temperature of the measurement (°C),ambient temperature measured by the external sensor (°C),aerosol sample conditioner tube jacket temperature (°C),OPC LED temperature (°C),internal box temperature (°C),relative humidity of the measurement (%),span deviation,mass concentration of particles derived from Lorenz-Mie calculation of OPC scattering (μg/m³),mass concentration of particles derived from Lorenz-Mie calculation of OPC scattering (μg/m³),mass concentration of particles derived from Lorenz-Mie calculation of OPC scattering (μg/m³)
DateTimeUTC,F1_M11,P_M11,Q1_M11,Q2_M11,T1_M11,T2_M11,T3_M11,T4_M11,T5_M11,U1_M11,ZSPAN_M11,X0_M11,X2_M11,X1_M11
2024-05-27 18:00:00,SystemResetWarning,0833.0,5.00,000.00,031.0,030.2,000.0,039.2,032.6,012.7,0000.0,0010.83,0003.74,0003.01
2024-05-27 18:01:00,SystemResetWarning,0832.9,5.00,000.00,031.0,030.2,000.0,039.2,032.6,013.9,0000.0,0010.50,0003.73,0003.00
2024-05-27 18:02:00,SystemResetWarning,0833.0,5.00,000.00,031.0,030.2,000.0,039.2,032.6,014.2,0000.0,0009.52,0003.71,0002.99
2024-05-27 18:03:00,SystemResetWarning,0832.9,5.00,000.00,031.0,030.2,000.0,039.2,032.6,014.2,0000.0,0009.36,0003.77,0003.01
2024-05-27 18:04:00,SystemResetWarning,0832.9,5.00,000.00,031.0,030.2,000.0,039.2,032.6,013.7,0000.0,0009.28,0003.75,0003.01
2024-05-27 18:05:00,SystemResetWarning,0832.9,5.00,000.00,031.0,030.2,000.0,039.2,032.6,012.8,0000.0,0009.42,0003.75,0003.02
2024-05-27 18:06:00,SystemResetWarning,0832.9,5.00,000.00,031.0,030.2,000.0,039.2,032.6,012.3,0000.0,0008.95,0003.70,0003.02
2024-05-27 18:07:00,SystemResetWarning,0833.2,5.00,000.00,031.0,030.2,000.0,039.2,032.6,012.4,0000.0,0008.40,0003.67,0003.00
2024-05-27 18:08:00,SystemResetWarning,0833.5,5.00,000.00,031.0,030.3,000.0,039.3,032.6,012.8,0000.0,0008.17,0003.65,0002.98
2024-05-27 18:09:00,SystemResetWarning,0833.2,5.00,000.00,031.0,030.3,000.0,039.3,032.6,013.4,0000.0,0008.17,0003.64,0002.98
2024-05-27 18:10:00,SystemResetWarning,0833.1,5.01,000.00,031.0,030.3,000.0,039.3,032.6,013.1,0000.0,0007.55,0003.64,0002.96
2024-05-27 18:11:00,SystemResetWarning,0833.2,5.00,000.00,031.0,030.3,000.0,039.3,032.7,013.4,0000.0,0007.41,0003.63,0002.96
2024-05-27 18:12:00,SystemResetWarning,0833.1,5.00,000.00,031.0,030.3,000.0,039.3,032.6,012.6,0000.0,0007.38,0003.61,0002.96
2024-05-27 18:13:00,SystemResetWarning,0833.1,5.00,000.00,031.1,030.3,000.0,039.3,032.6,012.5,0000.0,0007.67,0003.59,0002.94
2024-05-27 18:14:00,SystemResetWarning,0832.8,5.00,000.00,031.1,030.3,000.0,039.3,032.7,012.7,0000.0,0008.43,0003.54,0002.93
2024-05-27 18:15:00,SystemResetWarning,0832.8,4.99,000.00,031.1,030.3,000.0,039.3,032.7,013.2,0000.0,0008.72,0003.57,0002.95
2024-05-27 18:16:00,SystemResetWarning,0832.8,4.99,000.00,031.1,030.3,000.0,039.3,032.7,013.2,0000.0,0008.54,0003.55,0002.95
2024-05-27 18:17:00,SystemResetWarning,0832.9,4.99,000.00,031.1,030.3,000.0,039.3,032.7,013.8,0000.0,0008.09,0003.51,0002.97
2024-05-27 18:18:00,SystemResetWarning,0832.8,5.00,000.00,031.1,030.3,000.0,039.3,032.7,013.8,0000.0,0008.49,0003.49,0002.99
2024-05-27 18:19:00,SystemResetWarning,0832.9,5.01,000.00,031.1,030.3,000.0,039.4,032.7,013.3,0000.0,0008.83,0003.49,0003.03
2024-05-27 18:20:00,SystemResetWarning,0832.8,5.01,000.00,031.1,030.4,000.0,039.4,032.7,013.8,0000.0,0008.78,0003.51,0003.06
2024-05-27 18:21:00,SystemResetWarning,0832.8,5.00,000.00,031.1,030.4,000.0,039.4,032.8,014.4,0000.0,0008.77,0003.52,0003.08
2024-05-27 18:22:00,SystemResetWarning,0832.8,4.99,000.00,031.1,030.4,000.0,039.4,032.8,013.6,0000.0,0008.74,0003.51,0003.09
2024-05-27 18:23:00,SystemResetWarning,0832.8,4.99,000.00,031.1,030.4,000.0,039.4,032.8,013.9,0000.0,0008.66,0003.51,0003.09
2024-05-27 18:24:00,SystemResetWarning,0832.8,5.00,000.00,031.1,030.4,000.0,039.4,032.8,013.9,0000.0,0008.79,0003.52,0003.11
2024-05-27 18:25:00,SystemResetWarning,0832.8,5.01,000.00,031.2,030.4,000.0,039.4,032.8,014.0,0000.0,0008.35,0003.55,0003.13
2024-05-27 18:26:00,SystemResetWarning,0832.9,5.01,000.00,031.2,030.4,000.0,039.4,032.8,013.6,0000.0,0008.11,0003.61,0003.15
2024-05-27 18:27:00,SystemResetWarning,0832.8,5.00,000.00,031.2,030.4,000.0,039.4,032.8,013.8,0000.0,0008.44,0003.69,0003.18
2024-05-27 18:28:00,SystemResetWarning,0832.8,5.00,000.00,031.2,030.4,000.0,039.4,032.8,013.6,0000.0,0008.71,0003.74,0003.19
2024-05-27 18:29:00,SystemResetWarning,0832.7,5.01,000.00,031.2,030.4,000.0,039.5,032.8,013.1,0000.0,0008.58,0003.77,0003.21
2024-05-27 18:30:00,SystemResetWarning,0832.7,4.99,000.00,031.2,030.4,000.0,039.5,032.8,013.1,0000.0,0008.33,0003.78,0003.21
2024-05-27 18:31:00,SystemResetWarning,0832.8,4.99,000.00,031.2,030.4,000.0,039.5,032.8,013.3,0000.0,0009.03,0003.78,0003.22
2024-05-27 18:32:00,SystemResetWarning,0832.7,5.00,000.00,031.2,030.4,000.0,039.5,032.8,013.3,0000.0,0008.97,0003.76,0003.23
2024-05-27 18:33:00,SystemResetWarning,0832.7,5.00,000.00,031.1,029.7,000.0,039.6,032.4,013.7,0000.0,0009.02,0003.79,0003.24
2024-05-27 18:34:00,SystemResetWarning,0832.8,5.01,000.00,030.7,027.4,000.0,039.6,031.2,014.0,0000.0,0009.03,0003.80,0003.26
2024-05-27 18:35:00,SystemResetWarning,0832.6,5.01,000.00,030.4,026.9,000.0,039.5,030.9,014.0,0000.0,0009.66,0003.82,0003.28
2024-05-27 18:36:00,SystemResetWarning,0832.7,4.99,000.00,030.2,027.3,000.0,039.3,031.0,014.8,0000.0,0009.96,0003.85,0003.29
2024-05-27 18:37:00,SystemResetWarning,0832.7,5.00,000.00,030.2,027.7,000.0,039.2,031.3,014.4,0000.0,0010.07,0003.87,0003.30
2024-05-27 18:38:00,SystemResetWarning,0832.7,5.01,000.00,030.2,028.0,000.0,039.1,031.5,014.1,0000.0,0011.09,0003.79,0003.28
2024-05-27 18:39:00,SystemResetWarning,0832.7,4.99,000.00,030.2,028.3,000.0,039.0,031.6,015.1,0000.0,0012.12,0003.76,0003.28
2024-05-27 18:40:00,SystemResetWarning,0832.7,4.99,000.00,030.2,028.6,000.0,038.9,031.7,014.5,0000.0,0012.07,0003.77,0003.29
2024-05-27 18:41:00,SystemResetWarning,0832.7,5.01,000.00,030.2,028.8,000.0,038.9,031.8,015.1,0000.0,0012.23,0003.80,0003.30
2024-05-27 18:42:00,SystemResetWarning,0832.6,5.00,000.00,030.3,029.0,000.0,038.8,031.9,014.5,0000.0,0011.76,0003.84,0003.31
2024-05-27 18:43:00,SystemResetWarning,0832.7,5.00,000.00,030.3,029.2,000.0,038.8,031.9,014.0,0000.0,0012.37,0003.88,0003.32
2024-05-27 18:44:00,SystemResetWarning,0832.7,4.99,000.00,030.3,029.3,000.0,038.8,032.0,013.7,0000.0,0013.44,0003.87,0003.33
2024-05-27 18:45:00,SystemResetWarning,0832.6,4.99,000.00,030.3,029.4,000.0,038.8,032.0,013.1,0000.0,0013.42,0003.86,0003.32
2024-05-27 18:46:00,SystemResetWarning,0832.7,4.99,000.00,030.4,029.5,000.0,038.8,032.0,014.5,0000.0,0013.17,0003.88,0003.31
2024-05-27 18:47:00,SystemResetWarning,0832.6,5.01,000.00,030.4,029.6,000.0,038.8,032.1,013.4,0000.0,0012.74,0003.87,0003.30
2024-05-27 18:48:00,SystemResetWarning,0832.6,5.01,000.00,030.4,029.6,000.0,038.8,032.1,013.4,0000.0,0012.72,0003.82,0003.30
2024-05-27 18:49:00,SystemResetWarning,0832.7,5.01,000.00,030.5,029.7,000.0,038.8,032.1,014.0,0000.0,0011.75,0003.80,0003.29
2024-05-27 18:50:00,SystemResetWarning,0832.7,5.00,000.00,030.5,029.7,000.0,038.8,032.2,013.7,0000.0,0010.39,0003.81,0003.29
2024-05-27 18:51:00,SystemResetWarning,0832.7,5.00,000.00,030.5,029.8,000.0,038.8,032.2,014.1,0000.0,0010.09,0003.79,0003.27
2024-05-27 18:52:00,SystemResetWarning,0832.7,5.00,000.00,030.5,029.8,000.0,038.8,032.2,014.2,0000.0,0009.91,0003.78,0003.25
2024-05-27 18:53:00,SystemResetWarning,0832.7,4.99,000.00,030.6,029.9,000.0,038.8,032.3,013.8,0000.0,0009.91,0003.74,0003.24
2024-05-27 18:54:00,SystemResetWarning,0832.7,5.01,000.00,030.6,029.9,000.0,038.8,032.3,013.7,0000.0,0009.29,0003.70,0003.22
2024-05-27 18:55:00,SystemResetWarning,0832.7,5.02,000.00,030.6,029.9,000.0,038.9,032.3,013.4,0000.0,0008.15,0003.68,0003.22
2024-05-27 18:56:00,SystemResetWarning,0832.6,5.01,000.00,030.7,030.0,000.0,038.9,032.3,013.0,0000.0,0008.44,0003.68,0003.21
2024-05-27 18:57:00,SystemResetWarning,0832.6,5.00,000.00,030.7,030.0,000.0,038.9,032.3,013.8,0000.0,0008.79,0003.69,0003.22
2024-05-27 18:58:00,SystemResetWarning,0832.7,4.99,000.00,030.7,030.0,000.0,038.9,032.4,014.1,0000.0,0009.01,0003.71,0003.21
2024-05-27 18:59:00,SystemResetWarning,0832.7,4.99,000.00,030.7,030.0,000.0,038.9,032.4,013.3,0000.0,0009.58,0003.70,0003.20
